Time,TemperatureF,DewpointF,PressureIn,WindDirection,WindDirectionDegrees,WindSpeedMPH,WindSpeedGustMPH,Humidity,HourlyPrecipIn,Conditions,Clouds,dailyrainin,SoftwareType,DateUTC
2013-08-15 00:08:00,62.1,53.0,29.96,WNW,288,0.0,4.0,72,0.00,,,0.00,weatherlink.com 1.10,2013-08-15 04:08:00,
2013-08-15 00:23:00,61.7,53.0,29.96,WNW,298,1.0,5.0,73,0.00,,,0.00,weatherlink.com 1.10,2013-08-15 04:23:00,
2013-08-15 00:39:00,61.4,53.0,29.96,WNW,295,1.0,4.0,74,0.00,,,0.00,weatherlink.com 1.10,2013-08-15 04:39:00,
2013-08-15 00:54:00,61.1,53.0,29.97,SW,230,2.0,5.0,74,0.00,,,0.00,weatherlink.com 1.10,2013-08-15 04:54:00,
2013-08-15 01:09:00,60.7,53.0,29.97,WNW,302,3.0,4.0,75,0.00,,,0.00,weatherlink.com 1.10,2013-08-15 05:09:00,
2013-08-15 01:24:00,60.2,53.0,29.98,WNW,294,0.0,3.0,76,0.00,,,0.00,weatherlink.com 1.10,2013-08-15 05:24:00,
2013-08-15 01:39:00,59.9,53.0,29.97,WSW,241,0.0,3.0,77,0.00,,,0.00,weatherlink.com 1.10,2013-08-15 05:39:00,
2013-08-15 01:54:00,59.6,52.0,29.98,WNW,302,1.0,2.0,77,0.00,,,0.00,weatherlink.com 1.10,2013-08-15 05:54:00,
2013-08-15 02:09:00,59.6,53.0,29.98,West,276,0.0,7.0,78,0.00,,,0.00,weatherlink.com 1.10,2013-08-15 06:09:00,
2013-08-15 02:24:00,59.3,52.0,29.98,West,262,0.0,4.0,78,0.00,,,0.00,weatherlink.com 1.10,2013-08-15 06:24:00,
2013-08-15 02:39:00,59.1,52.0,29.98,WNW,285,1.0,1.0,78,0.00,,,0.00,weatherlink.com 1.10,2013-08-15 06:39:00,
2013-08-15 02:54:00,58.7,52.0,29.99,WSW,252,1.0,3.0,79,0.00,,,0.00,weatherlink.com 1.10,2013-08-15 06:54:00,
2013-08-15 03:09:00,58.5,52.0,29.99,West,267,0.0,2.0,80,0.00,,,0.00,weatherlink.com 1.10,2013-08-15 07:09:00,
2013-08-15 03:24:00,58.3,53.0,30.00,SW,233,0.0,2.0,81,0.00,,,0.00,weatherlink.com 1.10,2013-08-15 07:24:00,
2013-08-15 03:39:00,57.8,52.0,30.00,SW,233,0.0,2.0,82,0.00,,,0.00,weatherlink.com 1.10,2013-08-15 07:39:00,
2013-08-15 03:54:00,57.4,52.0,30.00,SW,230,1.0,2.0,83,0.00,,,0.00,weatherlink.com 1.10,2013-08-15 07:54:00,
2013-08-15 04:09:00,57.6,53.0,30.00,West,273,0.0,3.0,83,0.00,,,0.00,weatherlink.com 1.10,2013-08-15 08:09:00,
2013-08-15 04:24:00,57.3,53.0,30.01,SSW,211,0.0,2.0,84,0.00,,,0.00,weatherlink.com 1.10,2013-08-15 08:24:00,
2013-08-15 04:40:00,57.1,52.0,30.01,West,266,0.0,1.0,84,0.00,,,0.00,weatherlink.com 1.10,2013-08-15 08:40:00,
2013-08-15 04:54:00,57.0,52.0,30.01,WSW,255,0.0,1.0,83,0.00,,,0.00,weatherlink.com 1.10,2013-08-15 08:54:00,
2013-08-15 05:09:00,56.8,52.0,30.02,WNW,293,1.0,3.0,84,0.00,,,0.00,weatherlink.com 1.10,2013-08-15 09:09:00,
2013-08-15 05:24:00,56.6,52.0,30.03,WSW,240,0.0,1.0,84,0.00,,,0.00,weatherlink.com 1.10,2013-08-15 09:24:00,
2013-08-15 05:39:00,56.7,52.0,30.03,WNW,285,0.0,3.0,84,0.00,,,0.00,weatherlink.com 1.10,2013-08-15 09:39:00,
2013-08-15 05:54:00,56.9,52.0,30.03,West,269,0.0,5.0,82,0.00,,,0.00,weatherlink.com 1.10,2013-08-15 09:54:00,
2013-08-15 06:09:00,57.0,52.0,30.04,WSW,255,2.0,5.0,82,0.00,,,0.00,weatherlink.com 1.10,2013-08-15 10:09:00,
2013-08-15 06:24:00,57.2,52.0,30.04,SW,214,1.0,5.0,82,0.00,,,0.00,weatherlink.com 1.10,2013-08-15 10:24:00,
2013-08-15 06:39:00,57.5,52.0,30.05,West,276,2.0,7.0,81,0.00,,,0.00,weatherlink.com 1.10,2013-08-15 10:39:00,
2013-08-15 06:54:00,58.0,52.0,30.05,WSW,250,2.0,8.0,80,0.00,,,0.00,weatherlink.com 1.10,2013-08-15 10:54:00,
2013-08-15 07:09:00,58.8,52.0,30.05,West,274,3.0,6.0,78,0.00,,,0.00,weatherlink.com 1.10,2013-08-15 11:09:00,
2013-08-15 07:24:00,59.8,52.0,30.06,SW,221,1.0,4.0,76,0.00,,,0.00,weatherlink.com 1.10,2013-08-15 11:24:00,
2013-08-15 07:39:00,61.3,53.0,30.06,WSW,253,0.0,5.0,73,0.00,,,0.00,weatherlink.com 1.10,2013-08-15 11:39:00,
2013-08-15 07:54:00,62.8,53.0,30.06,West,280,2.0,4.0,70,0.00,,,0.00,weatherlink.com 1.10,2013-08-15 11:54:00,
2013-08-15 08:09:00,64.0,53.0,30.06,WNW,287,2.0,7.0,67,0.00,,,0.00,weatherlink.com 1.10,2013-08-15 12:09:00,
2013-08-15 08:25:00,65.2,53.0,30.06,WNW,290,2.0,5.0,65,0.00,,,0.00,weatherlink.com 1.10,2013-08-15 12:25:00,
2013-08-15 08:40:00,66.9,52.0,30.06,SSE,153,0.0,5.0,60,0.00,,,0.00,weatherlink.com 1.10,2013-08-15 12:40:00,
2013-08-15 08:55:00,67.6,52.0,30.06,WSW,255,1.0,5.0,57,0.00,,,0.00,weatherlink.com 1.10,2013-08-15 12:55:00,
2013-08-15 09:10:00,68.7,52.0,30.06,North,357,1.0,4.0,56,0.00,,,0.00,weatherlink.com 1.10,2013-08-15 13:10:00,
2013-08-15 09:25:00,69.9,52.0,30.06,WSW,243,2.0,5.0,53,0.00,,,0.00,weatherlink.com 1.10,2013-08-15 13:25:00,
2013-08-15 09:40:00,70.3,51.0,30.07,West,271,2.0,5.0,50,0.00,,,0.00,weatherlink.com 1.10,2013-08-15 13:40:00,
2013-08-15 09:55:00,71.9,50.0,30.06,NE,34,2.0,3.0,46,0.00,,,0.00,weatherlink.com 1.10,2013-08-15 13:55:00,
2013-08-15 10:10:00,72.9,50.0,30.07,West,274,2.0,6.0,45,0.00,,,0.00,weatherlink.com 1.10,2013-08-15 14:10:00,
2013-08-15 10:25:00,73.7,50.0,30.07,WSW,239,0.0,3.0,44,0.00,,,0.00,weatherlink.com 1.10,2013-08-15 14:25:00,
2013-08-15 10:40:00,74.5,50.0,30.07,WSW,257,3.0,6.0,42,0.00,,,0.00,weatherlink.com 1.10,2013-08-15 14:40:00,
2013-08-15 10:55:00,74.3,49.0,30.07,SSW,205,4.0,8.0,41,0.00,,,0.00,weatherlink.com 1.10,2013-08-15 14:55:00,
2013-08-15 11:10:00,75.0,51.0,30.07,WSW,242,2.0,5.0,43,0.00,,,0.00,weatherlink.com 1.10,2013-08-15 15:10:00,
2013-08-15 11:25:00,74.4,51.0,30.06,West,280,1.0,9.0,44,0.00,,,0.00,weatherlink.com 1.10,2013-08-15 15:25:00,
2013-08-15 11:40:00,74.8,51.0,30.06,WSW,248,0.0,7.0,43,0.00,,,0.00,weatherlink.com 1.10,2013-08-15 15:40:00,
2013-08-15 11:55:00,74.8,48.0,30.06,West,280,3.0,10.0,39,0.00,,,0.00,weatherlink.com 1.10,2013-08-15 15:55:00,
2013-08-15 12:10:00,76.1,49.0,30.06,NW,326,2.0,7.0,38,0.00,,,0.00,weatherlink.com 1.10,2013-08-15 16:10:00,
2013-08-15 12:25:00,75.9,49.0,30.05,West,278,2.0,6.0,39,0.00,,,0.00,weatherlink.com 1.10,2013-08-15 16:25:00,
2013-08-15 12:40:00,75.7,48.0,30.05,SW,217,3.0,9.0,38,0.00,,,0.00,weatherlink.com 1.10,2013-08-15 16:40:00,
2013-08-15 12:55:00,76.3,49.0,30.05,NNE,20,1.0,5.0,39,0.00,,,0.00,weatherlink.com 1.10,2013-08-15 16:55:00,
2013-08-15 13:10:00,75.5,49.0,30.04,West,271,3.0,6.0,40,0.00,,,0.00,weatherlink.com 1.10,2013-08-15 17:10:00,
2013-08-15 13:40:00,76.9,49.0,30.04,North,350,0.0,5.0,37,0.00,,,0.00,weatherlink.com 1.10,2013-08-15 17:40:00,
2013-08-15 13:55:00,76.6,49.0,30.04,WNW,301,1.0,7.0,38,0.00,,,0.00,weatherlink.com 1.10,2013-08-15 17:55:00,
2013-08-15 14:11:00,77.5,51.0,30.03,WNW,282,1.0,6.0,39,0.00,,,0.00,weatherlink.com 1.10,2013-08-15 18:11:00,
2013-08-15 14:40:00,77.6,49.0,30.03,WNW,301,5.0,9.0,37,0.00,,,0.00,weatherlink.com 1.10,2013-08-15 18:40:00,
2013-08-15 14:55:00,78.5,49.0,30.02,SW,226,3.0,5.0,36,0.00,,,0.00,weatherlink.com 1.10,2013-08-15 18:55:00,
2013-08-15 15:10:00,78.4,49.0,30.02,NW,312,3.0,9.0,36,0.00,,,0.00,weatherlink.com 1.10,2013-08-15 19:10:00,
2013-08-15 15:40:00,78.4,50.0,30.02,WSW,256,0.0,5.0,37,0.00,,,0.00,weatherlink.com 1.10,2013-08-15 19:40:00,
2013-08-15 16:10:00,79.1,52.0,30.02,WSW,239,1.0,10.0,39,0.00,,,0.00,weatherlink.com 1.10,2013-08-15 20:10:00,
2013-08-15 16:25:00,78.7,51.0,30.01,WNW,303,1.0,9.0,38,0.00,,,0.00,weatherlink.com 1.10,2013-08-15 20:25:00,
2013-08-15 16:41:00,78.8,53.0,30.01,WNW,295,2.0,5.0,41,0.00,,,0.00,weatherlink.com 1.10,2013-08-15 20:41:00,
2013-08-15 17:11:00,78.1,52.0,30.02,West,267,2.0,5.0,40,0.00,,,0.00,weatherlink.com 1.10,2013-08-15 21:11:00,
2013-08-15 17:26:00,77.9,51.0,30.02,WNW,295,2.0,9.0,39,0.00,,,0.00,weatherlink.com 1.10,2013-08-15 21:26:00,
2013-08-15 17:41:00,77.7,51.0,30.02,NE,34,1.0,5.0,40,0.00,,,0.00,weatherlink.com 1.10,2013-08-15 21:41:00,
2013-08-15 17:56:00,78.0,52.0,30.02,West,278,2.0,9.0,40,0.00,,,0.00,weatherlink.com 1.10,2013-08-15 21:56:00,
2013-08-15 18:11:00,76.8,52.0,30.02,West,271,3.0,8.0,42,0.00,,,0.00,weatherlink.com 1.10,2013-08-15 22:11:00,
2013-08-15 18:26:00,76.0,52.0,30.03,WNW,286,5.0,8.0,43,0.00,,,0.00,weatherlink.com 1.10,2013-08-15 22:26:00,
2013-08-15 18:41:00,75.2,52.0,30.02,WSW,252,4.0,5.0,44,0.00,,,0.00,weatherlink.com 1.10,2013-08-15 22:41:00,
2013-08-15 18:56:00,74.5,52.0,30.03,West,276,2.0,5.0,45,0.00,,,0.00,weatherlink.com 1.10,2013-08-15 22:56:00,
2013-08-15 19:11:00,73.8,52.0,30.03,West,276,0.0,6.0,46,0.00,,,0.00,weatherlink.com 1.10,2013-08-15 23:11:00,
2013-08-15 19:26:00,73.2,52.0,30.04,West,276,0.0,3.0,48,0.00,,,0.00,weatherlink.com 1.10,2013-08-15 23:26:00,
2013-08-15 19:41:00,72.6,53.0,30.05,West,264,1.0,4.0,50,0.00,,,0.00,weatherlink.com 1.10,2013-08-15 23:41:00,
2013-08-15 19:56:00,71.9,53.0,30.05,West,280,2.0,3.0,51,0.00,,,0.00,weatherlink.com 1.10,2013-08-15 23:56:00,
2013-08-15 20:11:00,71.2,53.0,30.05,West,276,0.0,3.0,53,0.00,,,0.00,weatherlink.com 1.10,2013-08-16 00:11:00,
2013-08-15 20:26:00,70.5,53.0,30.06,West,281,0.0,1.0,54,0.00,,,0.00,weatherlink.com 1.10,2013-08-16 00:26:00,
2013-08-15 20:41:00,69.2,53.0,30.07,West,281,0.0,0.0,57,0.00,,,0.00,weatherlink.com 1.10,2013-08-16 00:41:00,
2013-08-15 20:56:00,68.3,54.0,30.07,SSW,208,0.0,1.0,60,0.00,,,0.00,weatherlink.com 1.10,2013-08-16 00:56:00,
2013-08-15 21:11:00,68.0,53.0,30.08,WSW,239,0.0,2.0,60,0.00,,,0.00,weatherlink.com 1.10,2013-08-16 01:11:00,
2013-08-15 21:26:00,68.1,54.0,30.09,WSW,249,0.0,2.0,61,0.00,,,0.00,weatherlink.com 1.10,2013-08-16 01:26:00,
2013-08-15 21:41:00,67.7,54.0,30.09,SW,219,1.0,1.0,62,0.00,,,0.00,weatherlink.com 1.10,2013-08-16 01:41:00,
2013-08-15 21:56:00,67.2,54.0,30.10,WSW,249,1.0,1.0,63,0.00,,,0.00,weatherlink.com 1.10,2013-08-16 01:56:00,
2013-08-15 22:11:00,66.5,54.0,30.10,SW,231,0.0,1.0,64,0.00,,,0.00,weatherlink.com 1.10,2013-08-16 02:11:00,
2013-08-15 22:26:00,66.3,54.0,30.11,WSW,249,1.0,1.0,65,0.00,,,0.00,weatherlink.com 1.10,2013-08-16 02:26:00,
2013-08-15 22:41:00,65.9,54.0,30.10,West,280,0.0,1.0,66,0.00,,,0.00,weatherlink.com 1.10,2013-08-16 02:41:00,
2013-08-15 22:56:00,65.4,54.0,30.11,WNW,282,0.0,1.0,67,0.00,,,0.00,weatherlink.com 1.10,2013-08-16 02:56:00,
2013-08-15 23:11:00,65.2,55.0,30.10,WNW,282,0.0,2.0,69,0.00,,,0.00,weatherlink.com 1.10,2013-08-16 03:11:00,
2013-08-15 23:26:00,64.8,55.0,30.10,WNW,285,0.0,2.0,70,0.00,,,0.00,weatherlink.com 1.10,2013-08-16 03:26:00,
2013-08-15 23:41:00,64.2,55.0,30.10,WNW,295,0.0,1.0,71,0.00,,,0.00,weatherlink.com 1.10,2013-08-16 03:41:00,
2013-08-15 23:56:00,63.6,55.0,30.11,WSW,255,0.0,2.0,73,0.00,,,0.00,weatherlink.com 1.10,2013-08-16 03:56:00,